Miscellaneous Local Product
Issued by NWS North Platte, NE

Home | Current Version | Previous Version | Graphics & Text | Print | Product List | Glossary On
Versions: 1 2 3 4 5 6 7 8 9 10 11 12 13 14 15 16 17 18 19 20 21 22 23 24 25 26 27 28 29 30 31 32 33 34 35 36 37 38 39 40 41 42 43 44 45 46 47 48 49 50
000
AXUS43 KLBF 221710
MISLBF


WESTERN AND NORTH CENTRAL NEBRASKA HOURLY WEATHER ROUNDUP
NATIONAL WEATHER SERVICE NORTH PLATTE NE
1100 AM CST SAT NOV 22 2014

***STATIONS NOT REPORTING VARIABLES SUCH AS SKY/WEATHER OR
PRESSURE ARE PROVIDED BY THE NEBRASKA DEPARTMENT OF
ROADS...RAWS...AND APRS NETWORKS...AND ARE NOT UNDER
NATIONAL WEATHER SERVICE QUALITY CONTROL***

...OBSERVATIONS IN AND NEAR THE EASTERN PANHANDLE OF NEBRASKA...

CITY           SKY/WX    TMP DP  RH WIND       PRES   REMARKS
PINE RIDGE     PTSUNNY   47  25  42 S12       29.55F
CHADRON        CLOUDY    52  25  35 SW22G29   29.54F
ALLIANCE       PTSUNNY   58  17  20 SW22G37   29.63F
SIDNEY         CLOUDY    50  20  30 W9        29.70F
WHITECLAY        N/A     46  23  40 S15         N/A
LISCO            N/A     44  19  37 CALM        N/A
BIG SPRINGS      N/A     44  28  53 W8          N/A
LEWELLEN         N/A     16   3  57 CALM        N/A
$$

...OBSERVATIONS IN NORTH CENTRAL NEBRASKA...

CITY           SKY/WX    TMP DP  RH WIND       PRES   REMARKS
VALENTINE      PTSUNNY   43  29  57 SW9       29.59F
THEDFORD       MOSUNNY   60  24  25 SW18G25   29.66F
AINSWORTH      MOSUNNY   51  26  36 SW12      29.62F
O`NEILL        SUNNY     49  33  54 S8        29.66F
ORD            SUNNY     45  35  68 SE3       29.71F
BROKEN BOW     SUNNY     54  28  36 SW14      29.70F
BROWNLEE         N/A     57  23  26 SW20        N/A
BREWSTER         N/A     58  25  27 W20         N/A
COMSTOCK         N/A     58  30  35 W13         N/A
$$

...OBSERVATIONS IN SOUTHWEST NEBRASKA AND FAR NORTHEAST COLORADO...

CITY           SKY/WX    TMP DP  RH WIND       PRES   REMARKS
WRAY           FAIR      60  18  19 SW16G22   29.72F
HOLYOKE        FAIR      54  23  30 SW14      29.71F
IMPERIAL       SUNNY     61  19  19 S24G31    29.69F
OGALLALA       MOSUNNY   46  27  48 W8        29.70F
NORTH PLATTE   SUNNY     43  25  49 S5        29.71F
MCCOOK         SUNNY     47  26  44 SW5       29.74F
LEXINGTON      SUNNY     41  39  91 CALM      29.74F
PAXTON           N/A     43  30  60 CALM        N/A
GOTHENBURG       N/A     51  27  39 CALM        N/A
CALLAWAY         N/A     54  30  39 SW10        N/A
$$

...SOME WEATHER OBSERVATIONS FROM AROUND THE REGION...

CITY           SKY/WX    TMP DP  RH WIND       PRES   REMARKS
DENVER         PTSUNNY   56  14  19 SW13      29.73F
LARAMIE        MOSUNNY   41  19  41 SW31G41   29.72F
CHEYENNE       CLOUDY    47  14  26 SW14      29.70F
SCOTTSBLUFF    CLOUDY    57  19  22 SW21G30   29.64F
RAPID CITY     MOSUNNY   47  28  47 S8        29.45F
PIERRE         CLOUDY    33  27  78 SE8       29.50F WCI  26
WINNER         FAIR      47  27  45 SW20G26   29.56F
SIOUX FALLS    PTSUNNY   34  33  96 S10       29.69F FOG     WCI  26
OMAHA          CLOUDY    41  38  89 S14       29.85R FOG
GRAND ISLAND   SUNNY    N/A N/A N/A S13       29.77F
KANSAS CITY    CLOUDY    56  55  97 S20G30    29.90F FOG
WICHITA        FOG       49  48  97 S8        29.92F VSB 1/16
HAYS           SUNNY     46  34  61 S12       29.82F
LIBERAL        SUNNY     50  36  57 SW6       29.88F
GOODLAND       SUNNY     61  22  22 SW20G26   29.76F
$$



USA.gov is the U.S. government's official web portal to all federal, state and local government web resources and services.